Regional Weather Roundup
Issued by NWS

Home | Current Version | Previous Version | Text Only | Print | Product List | Glossary Off
Versions: 1 2 3 4 5 6 7 8 9 10 11 12 13 14 15 16 17 18 19 20 21 22 23 24 25 26 27 28 29 30 31 32 33 34 35 36 37 38 39 40 41 42 43 44 45 46 47 48 49 50

000
ASUS43 KIND 251709
RWRIN

WEATHER ROUNDUP FOR INDIANA
NATIONAL WEATHER SERVICE INDIANAPOLIS IN
100 PM EDT MON SEP 25 2017

NOTE: "FAIR" INDICATES FEW OR NO CLOUDS BELOW 12,000 FEET WITH NO
SIGNIFICANT WEATHER AND/OR OBSTRUCTIONS TO VISIBILITY.

* - STATION DOES NOT REPORT WEATHER SUCH AS PRECIPITATION OR FOG.

+ - STATION NOT QUALITY CONTROLLED BY THE NATIONAL WEATHER SERVICE.
    USE DATA WITH CAUTION...ESPECIALLY DEWPOINT AND RELATIVE
    HUMIDITY OBSERVATIONS.

INZ001>003-010>013-019-020-251800-
NORTHWEST INDIANA

CITY           SKY/WX    TMP DP  RH WIND       PRES   REMARKS
GARY /AIRPORT/ MOSUNNY   90  57  33 SE8       30.02
KNOX *+        MOSUNNY   82  59  44 SE5       30.04F
LA PORTE +     MOSUNNY   83  58  42 S5        30.04F
MICHIGAN CITY+ MOSUNNY   82  63  51 CALM      30.03F
MONTICELLO +   SUNNY     84  60  44 CALM      30.03F
RENSSELAER +   SUNNY     86  46  25 SE3       30.03F
VALPARAISO     MOSUNNY   86  64  47 SE6       30.03F

$$

LMZ046-743>745-251800-
SOUTHERN LAKE MICHIGAN

STATION/POSITION TIME  TEMP    WIND        PRES    WAVE
                       AIR SEA DIR/SP/G            HT
                 (UTC) (F)     (DEG/KT/KT) (MB)    (FT)
BURNS HARBOR     1640   86     200/  1/  7 1016.6F
MICHIGAN CITY    1640   83     140/  4/  6   N/A
5NW MICH CITY    1700   80 74  140/  4/  4   N/A     0

$$

INZ004-005-014>016-021>024-251800-
NORTH CENTRAL INDIANA

CITY           SKY/WX    TMP DP  RH WIND       PRES   REMARKS
ELKHART        PTSUNNY   84  55  37 CALM      30.05F
GOSHEN         SUNNY     85  55  35 CALM      30.05F
LOGANSPORT +   SUNNY     86  52  30 CALM      30.05F
PERU/GRISSOM   SUNNY     85  58  38 NE3       30.04F
SOUTH BEND     MOSUNNY   83  58  42 VRB3      30.05F
WARSAW +       SUNNY     84  57  39 NW5       30.06S

$$

INZ006>009-017-018-025>027-251800-
NORTHEAST INDIANA

CITY           SKY/WX    TMP DP  RH WIND       PRES   REMARKS
AUBURN +       SUNNY     86  54  32 CALM      30.06F
FORT WAYNE     MOSUNNY   86  55  34 CALM      30.06F
HUNTINGTON +   SUNNY     85  53  32 CALM      30.05F
KENDALLVILLE + SUNNY     84  58  41 CALM      30.07F

$$

INZ028-029-035-036-043>045-051>053-251800-
WEST CENTRAL INDIANA

CITY           SKY/WX    TMP DP  RH WIND       PRES   REMARKS
CRAWFORDSVL +  SUNNY     86  61  42 S3        30.03
GREENCASTLE +  SUNNY     86  61  42 CALM      30.04F
LAFAYETTE      NOT AVBL
TERRE HAUTE    SUNNY     87  63  44 S6        30.02F

$$

INZ030>032-037>040-046>048-054>057-064-065-251800-
CENTRAL INDIANA

CITY           SKY/WX    TMP DP  RH WIND       PRES   REMARKS
ANDERSON       SUNNY     84  57  39 CALM      30.06F
CP ATTERBURY + SUNNY     84  61  45 CALM      30.05F
COLUMBUS       SUNNY     82  57  42 CALM      30.05F
FISHERS *+     SUNNY     86  66  51 CALM      30.05F
FRANKFORT +    PTSUNNY   89  58  35 E6        30.06F
GREENWOOD *+   SUNNY     88  63  43 SE3       30.06S
INDIANAPOLIS   MOSUNNY   86  60  41 CALM      30.04F
-EAGLE CREEK   SUNNY     86  56  35 SE6       30.04F
KOKOMO +       SUNNY     86  58  38 CALM      30.06F
MT COMFORT *+  SUNNY     84  61  45 CALM      30.06F
SHELBYVILLE    SUNNY     87  60  40 W3        30.04F
ZIONSVILLE +   SUNNY     84  58  40 CALM      30.06F

$$

INZ033-034-041-042-049-050-058-059-251800-
EAST CENTRAL INDIANA

CITY           SKY/WX    TMP DP  RH WIND       PRES   REMARKS
MUNCIE         SUNNY     87  57  35 VRB3      30.05F
RICHMOND +     SUNNY     81  59  47 CALM      30.08F

$$

INZ060-061-067>069-081>083-085>088-251800-
SOUTHWEST INDIANA

CITY           SKY/WX    TMP DP  RH WIND       PRES   REMARKS
EVANSVILLE     MOSUNNY   86  67  52 SW5       30.03F
WASHINGTON +   SUNNY     87  61  41 S3        30.02F

$$

INZ062-063-066-070>080-084-089>092-251800-
SOUTH CENTRAL AND SOUTHEAST INDIANA

CITY           SKY/WX    TMP DP  RH WIND       PRES   REMARKS
BEDFORD +      SUNNY     84  63  48 CALM      30.03F
BLOOMINGTON    PTSUNNY   88  61  40 NW3       30.04F
MADISON *+     MOSUNNY   84  64  51 S5        30.07F
NORTH VERNON + SUNNY     84  64  51 SE3       30.05F
SEYMOUR +      SUNNY     88  63  42 SE3       30.04F

$$




USA.gov is the U.S. government's official web portal to all federal, state and local government web resources and services.